User: anonymous   Login
Location: Unspecified
(0.0000°N, 0.0000°E)
Time: 23:02:36
(UTC+00:00)
Language:

RCM-3 - Orbit

View from above orbital plane
View from above orbital plane
View from above satellite
View from above satellite

Ground track
Ground track

The orbit is defined by the following mean orbital elements,

1 44323U          26145.63204858 +.00000000 +00000-0 +21976-4 0 00002
2 44323  97.7594 153.4892 0001513  90.4280 269.7112 14.92588730    09
Epoch (UTC): 25 May 2026 15:10:08
Eccentricity: 0.0001513
inclination: 97.7594°
perigee height: 589 km
apogee height: 591 km
right ascension of ascending node: 153.4892°
argument of perigee: 90.4280°
revolutions per day: 14.92588730
mean anomaly at epoch: 269.7112°

The dashed part of the orbit path shows where the satellite is in the earth's shadow,  

DLR